Weather History for Lihue, HI

Change the Weather History Date:

Tuesday, May 7, 2013

  Actual Average Record
Temperature  
Mean Temperature 71 °F 75 °F  
Max Temperature 79 °F 80 °F 84 °F (1961)
Min Temperature 63 °F 70 °F 61 °F (1957)
Degree Days  
Heating Degree Days 0 0  
Month to date heating degree days 0 0  
Since 1 July heating degree days 0 0  
Cooling Degree Days 6 10  
Month to date cooling degree days 60 70  
Year to date cooling degree days 822 974  
Growing Degree Days 20 (Base 50)    
Moisture  
Dew Point 61 °F    
Average Humidity 72    
Maximum Humidity 87    
Minimum Humidity 56    
Precipitation  
Precipitation 0.00 in 0.07 in 1.90 in (1982)
Month to date precipitation 0.14 0.55  
Year to date precipitation 14.36 14.32  
Snow  
Snow 0.00 in - - ()
Month to date snowfall 0.0  
Since 1 July snowfall 0.0  
Snow Depth 0.00 in    
Sea Level Pressure  
Sea Level Pressure 29.97 in    
Wind  
Wind Speed 8 mph (NNW)    
Max Wind Speed 21 mph    
Max Gust Speed 24 mph    
Visibility 10 miles    
Events      
T = Trace of Precipitation, MM = Missing Value Source: NWS Daily Summary

Daily Weather History Graph

Daily Weather History Graph

Search for Another Location

Airport:

Trip Planner

Search our weather history database for the weather conditions in past years. The results will help you decide how hot, cold, wet, or windy it might be!

Date:

Astronomy

May. 07, 2013 Rise Set
Actual Time 6:01 AM HST 7:06 PM HST
Civil Twilight 5:38 AM HST 7:29 PM HST
Nautical Twilight 5:10 AM HST 7:58 PM HST
Astronomical Twilight 4:41 AM HST 8:26 PM HST
Moon 4:28 AM HST (5/7) 5:27 PM HST (5/7)
Length of Visible Light 13h 51m
Length of Day
13h 04m
Waning Crescent, 4% of the Moon is Illuminated
May 7
Waning Crescent
May 9
New
May 17
First Quarter
May 24
Full
May 31
Last Quarter

Hourly Weather History & Observations

Time (HST) Temp. Dew Point Humidity Pressure Visibility Wind Dir Wind Speed Gust Speed Precip Events Conditions
12:53 AM 66.9 °F 60.1 °F 79% 29.97 in 10.0 mi West 4.6 mph - N/A   Mostly Cloudy
1:53 AM 66.0 °F 59.0 °F 78% 29.95 in 10.0 mi Calm Calm - N/A   Mostly Cloudy
2:53 AM 64.9 °F 59.0 °F 81% 29.94 in 10.0 mi West 3.5 mph - N/A   Scattered Clouds
3:53 AM 66.0 °F 59.0 °F 78% 29.94 in 10.0 mi West 5.8 mph - N/A   Mostly Cloudy
4:53 AM 64.9 °F 59.0 °F 81% 29.94 in 10.0 mi West 4.6 mph - N/A   Partly Cloudy
5:53 AM 64.0 °F 60.1 °F 87% 29.95 in 10.0 mi West 6.9 mph - N/A   Scattered Clouds
6:53 AM 66.0 °F 60.1 °F 81% 29.96 in 10.0 mi West 5.8 mph - N/A   Clear
7:49 AM 71.6 °F 60.8 °F 69% 29.99 in 10.0 mi West 4.6 mph - N/A   Mostly Cloudy
7:53 AM 71.1 °F 61.0 °F 70% 29.99 in 10.0 mi WNW 3.5 mph - N/A   Mostly Cloudy
8:15 AM 73.4 °F 60.8 °F 65% 29.99 in 10.0 mi Calm Calm - N/A   Scattered Clouds
8:53 AM 75.0 °F 62.1 °F 64% 29.99 in 10.0 mi Calm Calm - N/A   Scattered Clouds
9:53 AM 75.0 °F 61.0 °F 62% 30.00 in 10.0 mi East 3.5 mph - N/A   Clear
10:53 AM 77.0 °F 61.0 °F 58% 30.00 in 10.0 mi NE 10.4 mph - N/A   Clear
11:53 AM 77.0 °F 62.1 °F 60% 29.99 in 10.0 mi NE 15.0 mph - N/A   Clear
12:53 PM 77.0 °F 62.1 °F 60% 29.97 in 10.0 mi ENE 13.8 mph - N/A   Clear
1:53 PM 78.1 °F 62.1 °F 58% 29.96 in 10.0 mi NE 17.3 mph - N/A   Scattered Clouds
2:53 PM 77.0 °F 62.1 °F 60% 29.94 in 10.0 mi NE 18.4 mph - N/A   Scattered Clouds
3:53 PM 75.0 °F 63.0 °F 66% 29.94 in 10.0 mi NE 19.6 mph - N/A   Overcast
4:53 PM 75.9 °F 63.0 °F 64% 29.94 in 10.0 mi NE 13.8 mph - N/A   Mostly Cloudy
5:53 PM 73.9 °F 62.1 °F 66% 29.95 in 10.0 mi NNE 11.5 mph - N/A   Overcast
6:53 PM 73.0 °F 61.0 °F 66% 29.96 in 10.0 mi North 11.5 mph - N/A   Mostly Cloudy
7:53 PM 71.1 °F 61.0 °F 70% 29.98 in 10.0 mi North 6.9 mph - N/A   Overcast
8:53 PM 70.0 °F 61.0 °F 73% 30.00 in 10.0 mi NW 4.6 mph - N/A   Mostly Cloudy
9:53 PM 70.0 °F 61.0 °F 73% 30.01 in 10.0 mi West 4.6 mph - N/A   Overcast
10:53 PM 69.1 °F 62.1 °F 78% 30.02 in 10.0 mi NW 4.6 mph - N/A   Overcast
11:53 PM 68.0 °F 61.0 °F 78% 30.01 in 10.0 mi West 4.6 mph - N/A   Scattered Clouds